Regional Weather Roundup
Issued by NWS Midland/Odessa, TX

Home | Current Version | Previous Version | Text Only | Print | Product List | Glossary On
Versions: 1 2 3 4 5 6 7 8 9 10 11 12 13 14 15 16 17 18 19 20 21 22 23 24 25 26 27 28 29 30 31 32 33 34 35 36 37 38 39 40 41 42 43 44 45 46 47 48 49 50
000
ASUS44 KMAF 261310
RWRMAF
MIDLAND AREA WEATHER ROUNDUP
NATIONAL WEATHER SERVICE MIDLAND TX
800 AM CDT TUE SEP 26 2017

...IN SOUTHWEST TEXAS AND SOUTHEAST NEW MEXICO...

CITY           SKY/WX    TMP DP  RH WIND       PRES   REMARKS
ALPINE         CLOUDY    66  61  85 SE5       30.06R
ANDREWS        CLOUDY    63  63 100 NE6       29.99R
ARTESIA        CLOUDY    61  61 100 N5        30.03R
BIG SPRING     CLOUDY    69  67  96 CALM      29.98R
CARLSBAD       CLOUDY    66  66 100 NE8       29.98R
DRYDEN           N/A     71  69  93 E12       29.89R
FORT STOCKTON  NOT AVBL
GUAD PASS      NOT AVBL
HOBBS          LGT RAIN  61  59  94 N18G24    30.04R FOG
MARFA          CLOUDY    62  59  90 W20       30.07R
MIDLAND AIRPK  CLOUDY    70  70 100 CALM      29.97R FOG
MIDLAND INTL   CLOUDY    71  67  87 E3        29.96R
ODESSA         CLOUDY    69  68  96 E6        29.97R
PECOS          MOCLDY    68  65  91 CALM      29.93R
PRESIDIO       CLOUDY    73  64  74 NE5       29.93R
SEMINOLE       CLOUDY    63  61  95 N7        30.02R
SNYDER         CLOUDY    68  67  99 N5        29.97R
WINK           CLOUDY    70  67  90 E7        29.94R
$$
...OTHER STATIONS IN TEXAS...

CITY           SKY/WX    TMP DP  RH WIND       PRES   REMARKS
ABILENE        CLOUDY    70  70 100 SE7       29.94R
AMARILLO       NOT AVBL
AUSTIN         MOCLDY    75  73  93 E3        29.89R
BROWNSVILLE    CLEAR     81  78  91 SE7       29.80S
CORPUS CHRISTI MOCLDY    80  78  94 SE6       29.82S
DALLAS FTW     MOCLDY    77  70  79 E6        29.91R
DEL RIO        CLOUDY    73  71  93 E8        29.85S
EL PASO        PTCLDY    60  36  40 N10       29.94R
HOUSTON INT    PTCLDY    74  72  93 NE5       29.89R
LUBBOCK        DRIZZLE   62  60  93 NE17G24   30.03R FOG
SAN ANGELO     CLOUDY    71  67  87 E3        29.93R
SAN ANTONIO    LGT RAIN  74  71  91 SE5       29.89R
WACO           CLOUDY    75  72  90 CALM      29.92R
WICHITA FALLS  NOT AVBL
$$
...OTHER LOCATIONS IN NEW MEXICO...

CITY           SKY/WX    TMP DP  RH WIND       PRES   REMARKS
ALAMOGORDO     CLEAR     54  30  40 NE7       29.98R
ALBUQUERQUE    PTCLDY    57  49  74 E21G28    30.06R
CANNON AFB     CLOUDY    55  55 100 NE13      30.09
CLOVIS         LGT RAIN  54  54 100 NE15      30.11R
HOLLOMAN AFB   CLEAR     51  27  39 NW5       29.99
ROSWELL        CLOUDY    62  58  86 N10       30.04R
RUIDOSO        CLOUDY    50  50 100 E7        30.18R FOG
SANTA FE       MOCLDY    50  41  71 N3        30.13R
TRUTH OR CONSE CLOUDY    60  44  55 N12       30.00R
TUCUMCARI      CLOUDY    54  51  90 NE13      30.12R
$$




USA.gov is the U.S. government's official web portal to all federal, state and local government web resources and services.